Regional Weather Roundup
Issued by NWS

Home | Current Version | Previous Version | Text Only | Print | Product List | Glossary Off
Versions: 1 2 3 4 5 6 7 8 9 10 11 12 13 14 15 16 17 18 19 20 21 22 23 24 25 26 27 28 29 30 31 32 33 34 35 36 37 38 39 40 41 42 43 44 45 46 47 48 49 50

000
ASUS45 KBOI 100410
RWRID

IDAHO REGIONAL WEATHER ROUNDUP
NATIONAL WEATHER SERVICE BOISE ID
900 PM MST TUE FEB 09 2016

NOTE: "FAIR" INDICATES FEW OR NO CLOUDS BELOW 12000 FEET
WITH NO SIGNIFICANT WEATHER AND/OR OBSTRUCTIONS TO VISIBILITY

IDZ012-014-100500-
SOUTHWEST IDAHO


CITY           SKY/WX    TMP DP  RH WIND       PRES   REMARKS
BOISE          CLEAR     32  29  88 CALM      30.46R
CALDWELL       CLEAR     29  27  92 CALM      30.48R
MOUNTAIN HOME  CLEAR     31  28  87 CALM      30.43F
$$

IDZ016-017-100500-
SOUTHCENTRAL IDAHO


CITY           SKY/WX    TMP DP  RH WIND       PRES   REMARKS
BURLEY         CLEAR     29  26  89 NE12      30.39F WCI  19
JEROME         CLEAR     26  22  84 NE24      30.39S WCI  11
TWIN FALLS     CLEAR     28  26  92 E6        30.40S WCI  22
$$

IDZ019>023-100500-
SOUTHEAST IDAHO


CITY           SKY/WX    TMP DP  RH WIND       PRES   REMARKS
IDAHO FALLS    FOG       15  12  88 N8        30.46F VSB 1/2 WCI   4
POCATELLO      CLOUDY    21  20  96 N6        30.46F WCI  13
REXBURG        CLOUDY    13  10  88 NE3       30.45F
$$

IDZ006-010-011-018-031-032-100500-
CENTRAL IDAHO MOUNTAINS


CITY           SKY/WX    TMP DP  RH WIND       PRES   REMARKS
MCCALL         CLEAR     25  24  96 NE3       30.35S
HAILEY         CLEAR     28  23  80 NW7       30.43R WCI  21
STANLEY          N/A     20  16  84 S3        30.41R
SALMON         CLEAR     12   9  85 SE3       30.44F
CHALLIS        CLEAR     16  12  84 CALM      30.42S
$$

IDZ002-004-006-007-026-100500-
NORTHERN IDAHO


CITY           SKY/WX    TMP DP  RH WIND       PRES   REMARKS
LEWISTON       CLEAR     45  35  68 SW9       30.25R
LOWELL           N/A     37  34  89 N5        30.32R WCI  33
COEUR D`ALENE  CLEAR     36  28  75 NE7       30.22S WCI  30
MULLAN PASS    CLEAR     43  26  51 SW6       30.26S
$$



USA.gov is the U.S. government's official web portal to all federal, state and local government web resources and services.